STARLINK-36075

Last updated on Fri Dec 19 2025 00:02:08 GMT+0000 (Coordinated Universal Time)

1 66905U 25283AD 25352.58336806 -.01638342 00000+0 -10935-1 0 9999 2 66905 53.1551 44.3186 0000998 66.9716 113.2152 15.77382245 3366
UTC large
Height (km)
Speed (km/s)
/
Latitude / Longitude
Inclination (degrees)
Orbital Period (minutes)
Azimuth
Elevation
Range (km)
Doppler Factor

Next 0 passes for location: London (51.5072 / 0.1276)

Sorry there are no passes over London.